Location: C.E.K. Mees Observatory
(42.7003°N, 77.4088°W)
Time: 00:39:08
(UTC-05:00)

Envisat - Pass Details

Date: 24 November 2019
Orbit: 764 x 766 km, 98.1° (Epoch: 12 December)

Event Time Altitude Azimuth Distance (km) Brightness Sun altitude
Rises 17:30:08 0° 147° (SSE) 3,219 6.1 -9.2°
Reaches altitude 10° 17:32:30 10° 140° (SE) 2,296 5.3 -9.6°
Maximum altitude 17:37:16 43° 70° (ENE) 1,064 3.3 -10.5°
Drops below altitude 10° 17:42:04 10° 0° (N) 2,310 5.3 -11.3°
Sets 17:44:28 0° 354° (N) 3,240 6.1 -11.7°
